| time (UTC) | temp F | wind direction | speed MPH | gust MPH | rain 1hr in | rain 24hr in | rain mn in | humidity % | barometer mb |
| 20260505034924 | 57 | 231 | 0.0 | 1.0 | 0.00 | 0.00 | 0.00 | 54 | 1009.8 |
| 20260505034420 | 58 | 264 | 1.0 | 2.0 | 0.00 | 0.00 | 0.00 | 54 | 1009.9 |
| 20260505033918 | 58 | 161 | 1.0 | 1.0 | 0.00 | 0.00 | 0.00 | 53 | 1009.8 |
| 20260505033414 | 58 | 207 | 1.0 | 1.0 | 0.00 | 0.00 | 0.00 | 53 | 1009.9 |
| 20260505032913 | 58 | 281 | 1.0 | 4.0 | 0.00 | 0.00 | 0.00 | 52 | 1009.9 |
| 20260505032409 | 58 | 184 | 0.0 | 0.0 | 0.00 | 0.00 | 0.00 | 52 | 1009.7 |
| 20260505031906 | 58 | 314 | 2.0 | 8.0 | 0.00 | 0.00 | 0.00 | 51 | 1009.7 |
| 20260505031403 | 59 | 189 | 1.0 | 2.0 | 0.00 | 0.00 | 0.00 | 51 | 1009.7 |
| 20260505030900 | 59 | 178 | 2.0 | 2.0 | 0.00 | 0.00 | 0.00 | 50 | 1009.8 |
| 20260505030355 | 59 | 228 | 0.0 | 1.0 | 0.00 | 0.00 | 0.00 | 50 | 1009.8 |
| 20260505025851 | 59 | 297 | 0.0 | 4.0 | 0.00 | 0.00 | 0.00 | 50 | 1009.9 |
| 20260505025349 | 59 | 277 | 0.0 | 6.0 | 0.00 | 0.00 | 0.00 | 49 | 1009.9 |
| 20260505024848 | 59 | 277 | 1.0 | 2.0 | 0.00 | 0.00 | 0.00 | 49 | 1009.7 |
| 20260505024345 | 59 | 221 | 1.0 | 2.0 | 0.00 | 0.00 | 0.00 | 49 | 1009.7 |
| 20260505023842 | 59 | 178 | 2.0 | 2.0 | 0.00 | 0.00 | 0.00 | 49 | 1009.8 |
| 20260505023339 | 59 | 177 | 0.0 | 1.0 | 0.00 | 0.00 | 0.00 | 49 | 1009.7 |
| 20260505022836 | 59 | 157 | 1.0 | 4.0 | 0.00 | 0.00 | 0.00 | 48 | 1009.8 |
| 20260505022333 | 60 | 274 | 1.0 | 1.0 | 0.00 | 0.00 | 0.00 | 48 | 1009.7 |
| 20260505021830 | 60 | 174 | 2.0 | 2.0 | 0.00 | 0.00 | 0.00 | 48 | 1009.8 |
| 20260505021327 | 60 | 213 | 1.0 | 1.0 | 0.00 | 0.00 | 0.00 | 47 | 1009.9 |
| 20260505020822 | 60 | 200 | 0.0 | 1.0 | 0.00 | 0.00 | 0.00 | 47 | 1009.7 |
| 20260505020318 | 60 | 226 | 1.0 | 2.0 | 0.00 | 0.00 | 0.00 | 46 | 1009.7 |
| 20260505015815 | 60 | 344 | 2.0 | 2.0 | 0.00 | 0.00 | 0.00 | 46 | 1009.8 |
| 20260505015312 | 61 | 213 | 1.0 | 2.0 | 0.00 | 0.00 | 0.00 | 46 | 1009.6 |
| 20260505014810 | 61 | 205 | 1.0 | 2.0 | 0.00 | 0.00 | 0.00 | 45 | 1009.8 |
| 20260505014307 | 61 | 267 | 2.0 | 4.0 | 0.00 | 0.00 | 0.00 | 45 | 1009.7 |
| 20260505013803 | 61 | 201 | 0.0 | 1.0 | 0.00 | 0.00 | 0.00 | 44 | 1009.7 |
| 20260505013300 | 62 | 227 | 1.0 | 1.0 | 0.00 | 0.00 | 0.00 | 43 | 1009.4 |
| 20260505012759 | 62 | 161 | 0.0 | 3.0 | 0.00 | 0.00 | 0.00 | 43 | 1009.4 |
| 20260505012256 | 62 | 148 | 0.0 | 2.0 | 0.00 | 0.00 | 0.00 | 43 | 1009.2 |
| 20260505011751 | 62 | 139 | 2.0 | 3.0 | 0.00 | 0.00 | 0.00 | 43 | 1009.3 |
| 20260505011248 | 62 | 189 | 0.0 | 1.0 | 0.00 | 0.00 | 0.00 | 44 | 1009.2 |
| 20260505010744 | 62 | 182 | 0.0 | 2.0 | 0.00 | 0.00 | 0.00 | 43 | 1009.1 |
| 20260505010241 | 62 | 250 | 2.0 | 4.0 | 0.00 | 0.00 | 0.00 | 43 | 1009.0 |
| 20260505005737 | 63 | 217 | 0.0 | 1.0 | 0.00 | 0.00 | 0.00 | 42 | 1008.9 |
| 20260505005234 | 63 | 260 | 2.0 | 3.0 | 0.00 | 0.00 | 0.00 | 42 | 1008.7 |
| 20260505004731 | 63 | 175 | 1.0 | 2.0 | 0.00 | 0.00 | 0.00 | 42 | 1008.6 |
| 20260505004227 | 63 | 269 | 3.0 | 3.0 | 0.00 | 0.00 | 0.00 | 42 | 1008.4 |
| 20260505003725 | 63 | 263 | 0.0 | 4.0 | 0.00 | 0.00 | 0.00 | 42 | 1008.4 |
| 20260505003223 | 64 | 274 | 1.0 | 1.0 | 0.00 | 0.00 | 0.00 | 41 | 1008.3 |
| 20260505002719 | 64 | 277 | 4.0 | 6.0 | 0.00 | 0.00 | 0.00 | 41 | 1008.1 |
| 20260505002216 | 64 | 301 | 2.0 | 3.0 | 0.00 | 0.00 | 0.00 | 41 | 1007.8 |
| 20260505001714 | 64 | 270 | 2.0 | 4.0 | 0.00 | 0.00 | 0.00 | 40 | 1007.9 |
| 20260505001211 | 64 | 271 | 1.0 | 2.0 | 0.00 | 0.00 | 0.00 | 40 | 1007.8 |
| 20260505000708 | 65 | 107 | 3.0 | 6.0 | 0.00 | 0.00 | 0.00 | 39 | 1007.7 |
| 20260505000206 | 65 | 191 | 1.0 | 9.0 | 0.00 | 0.00 | 0.00 | 39 | 1007.6 |
| 20260504235702 | 65 | 239 | 1.0 | 2.0 | 0.00 | 0.00 | 0.00 | 38 | 1007.3 |
| 20260504235158 | 66 | 224 | 1.0 | 2.0 | 0.00 | 0.00 | 0.00 | 37 | 1007.5 |
| 20260504234656 | 66 | 155 | 0.0 | 2.0 | 0.00 | 0.00 | 0.00 | 36 | 1007.1 |
| 20260504234153 | 66 | 272 | 1.0 | 6.0 | 0.00 | 0.00 | 0.00 | 37 | 1007.2 |
| 20260504233649 | 67 | 177 | 2.0 | 4.0 | 0.00 | 0.00 | 0.00 | 36 | 1007.0 |
| 20260504233144 | 67 | 229 | 1.0 | 9.0 | 0.00 | 0.00 | 0.00 | 35 | 1006.9 |
| 20260504232643 | 67 | 197 | 2.0 | 8.0 | 0.00 | 0.00 | 0.00 | 35 | 1006.9 |
| 20260504232139 | 68 | 177 | 1.0 | 6.0 | 0.00 | 0.00 | 0.00 | 34 | 1006.7 |
| 20260504231636 | 68 | 178 | 1.0 | 3.0 | 0.00 | 0.00 | 0.00 | 34 | 1006.6 |
| 20260504231132 | 69 | 105 | 2.0 | 4.0 | 0.00 | 0.00 | 0.00 | 33 | 1006.6 |
| 20260504230628 | 70 | 194 | 2.0 | 3.0 | 0.00 | 0.00 | 0.00 | 31 | 1006.4 |
| 20260504230127 | 70 | 199 | 0.0 | 0.0 | 0.00 | 0.00 | 0.00 | 29 | 1006.4 |
| 20260504225625 | 71 | 305 | 0.0 | 3.0 | 0.00 | 0.00 | 0.00 | 28 | 1006.0 |
| 20260504225121 | 71 | 271 | 1.0 | 3.0 | 0.00 | 0.00 | 0.00 | 28 | 1006.0 |
| 20260504224618 | 71 | 298 | 1.0 | 3.0 | 0.00 | 0.00 | 0.00 | 28 | 1005.9 |
| 20260504224115 | 71 | 296 | 1.0 | 3.0 | 0.00 | 0.00 | 0.00 | 28 | 1005.8 |
| 20260504223612 | 71 | 284 | 1.0 | 6.0 | 0.00 | 0.00 | 0.00 | 27 | 1006.0 |
| 20260504223108 | 72 | 317 | 2.0 | 4.0 | 0.00 | 0.00 | 0.00 | 27 | 1005.8 |
| 20260504222605 | 72 | 286 | 2.0 | 2.0 | 0.00 | 0.00 | 0.00 | 27 | 1005.9 |
| 20260504222102 | 72 | 239 | 2.0 | 4.0 | 0.00 | 0.00 | 0.00 | 27 | 1006.0 |
| 20260504221559 | 72 | 282 | 1.0 | 2.0 | 0.00 | 0.00 | 0.00 | 26 | 1005.9 |
| 20260504221056 | 73 | 315 | 2.0 | 2.0 | 0.00 | 0.00 | 0.00 | 27 | 1005.9 |
| 20260504220552 | 73 | 258 | 1.0 | 4.0 | 0.00 | 0.00 | 0.00 | 26 | 1005.9 |
| 20260504220049 | 73 | 276 | 1.0 | 2.0 | 0.00 | 0.00 | 0.00 | 27 | 1006.1 |
| 20260504215546 | 73 | 194 | 4.0 | 4.0 | 0.00 | 0.00 | 0.00 | 26 | 1005.8 |
| 20260504215043 | 73 | 296 | 1.0 | 3.0 | 0.00 | 0.00 | 0.00 | 26 | 1005.9 |
| 20260504214539 | 73 | 268 | 3.0 | 4.0 | 0.00 | 0.00 | 0.00 | 26 | 1006.1 |
| 20260504214036 | 73 | 280 | 2.0 | 2.0 | 0.00 | 0.00 | 0.00 | 26 | 1005.9 |
| 20260504213532 | 73 | 298 | 1.0 | 3.0 | 0.00 | 0.00 | 0.00 | 26 | 1006.0 |
| 20260504213030 | 72 | 255 | 1.0 | 2.0 | 0.00 | 0.00 | 0.00 | 27 | 1005.9 |
| 20260504212525 | 72 | 289 | 2.0 | 3.0 | 0.00 | 0.00 | 0.00 | 27 | 1005.9 |
| 20260504212023 | 72 | 293 | 2.0 | 3.0 | 0.00 | 0.00 | 0.00 | 26 | 1005.9 |
| 20260504211520 | 72 | 148 | 4.0 | 7.0 | 0.00 | 0.00 | 0.00 | 26 | 1005.8 |
| 20260504211017 | 72 | 305 | 1.0 | 4.0 | 0.00 | 0.00 | 0.00 | 26 | 1006.0 |
| 20260504210514 | 72 | 187 | 1.0 | 3.0 | 0.00 | 0.00 | 0.00 | 26 | 1005.8 |
| 20260504210010 | 73 | 286 | 1.0 | 4.0 | 0.00 | 0.00 | 0.00 | 26 | 1005.7 |
| 20260504205508 | 74 | 217 | 2.0 | 10.0 | 0.00 | 0.00 | 0.00 | 25 | 1005.9 |
| 20260504205006 | 73 | 282 | 3.0 | 6.0 | 0.00 | 0.00 | 0.00 | 26 | 1005.8 |
| 20260504204504 | 73 | 283 | 1.0 | 4.0 | 0.00 | 0.00 | 0.00 | 26 | 1006.2 |
| 20260504204003 | 74 | 277 | 0.0 | 1.0 | 0.00 | 0.00 | 0.00 | 25 | 1005.8 |
| 20260504203500 | 75 | 286 | 4.0 | 4.0 | 0.00 | 0.00 | 0.00 | 24 | 1006.0 |
| 20260504202956 | 75 | 335 | 1.0 | 3.0 | 0.00 | 0.00 | 0.00 | 24 | 1005.8 |
| 20260504202453 | 76 | 290 | 1.0 | 7.0 | 0.00 | 0.00 | 0.00 | 23 | 1006.0 |
| 20260504201950 | 74 | 296 | 2.0 | 3.0 | 0.00 | 0.00 | 0.00 | 25 | 1005.8 |
| 20260504201447 | 74 | 245 | 6.0 | 8.0 | 0.00 | 0.00 | 0.00 | 23 | 1006.1 |
| 20260504200944 | 73 | 305 | 4.0 | 6.0 | 0.00 | 0.00 | 0.00 | 25 | 1006.0 |
| 20260504200441 | 74 | 92 | 2.0 | 6.0 | 0.00 | 0.00 | 0.00 | 23 | 1006.0 |
| 20260504195937 | 74 | 249 | 2.0 | 4.0 | 0.00 | 0.00 | 0.00 | 24 | 1006.0 |
| 20260504195433 | 75 | 257 | 3.0 | 9.0 | 0.00 | 0.00 | 0.00 | 23 | 1006.2 |
| 20260504194930 | 75 | 204 | 1.0 | 8.0 | 0.00 | 0.00 | 0.00 | 23 | 1006.1 |
| 20260504194426 | 75 | 324 | 1.0 | 8.0 | 0.00 | 0.00 | 0.00 | 23 | 1006.2 |
| 20260504193922 | 75 | 297 | 3.0 | 3.0 | 0.00 | 0.00 | 0.00 | 23 | 1006.2 |
| 20260504193420 | 76 | 301 | 3.0 | 4.0 | 0.00 | 0.00 | 0.00 | 22 | 1006.2 |
| 20260504192918 | 75 | 334 | 1.0 | 2.0 | 0.00 | 0.00 | 0.00 | 23 | 1006.0 |
| 20260504192415 | 75 | 276 | 3.0 | 6.0 | 0.00 | 0.00 | 0.00 | 22 | 1006.1 |
| 20260504191914 | 75 | 358 | 2.0 | 6.0 | 0.00 | 0.00 | 0.00 | 24 | 1006.1 |
| 20260504191411 | 75 | 290 | 2.0 | 6.0 | 0.00 | 0.00 | 0.00 | 23 | 1006.1 |
| 20260504190906 | 74 | 146 | 1.0 | 6.0 | 0.00 | 0.00 | 0.00 | 23 | 1006.1 |
| 20260504190403 | 74 | 311 | 3.0 | 6.0 | 0.00 | 0.00 | 0.00 | 24 | 1006.4 |
| 20260504185859 | 74 | 272 | 3.0 | 4.0 | 0.00 | 0.00 | 0.00 | 24 | 1006.3 |
| 20260504185357 | 74 | 285 | 4.0 | 6.0 | 0.00 | 0.00 | 0.00 | 23 | 1006.5 |
| 20260504184853 | 74 | 315 | 3.0 | 14.0 | 0.00 | 0.00 | 0.00 | 23 | 1006.3 |
| 20260504184348 | 74 | 206 | 1.0 | 4.0 | 0.00 | 0.00 | 0.00 | 23 | 1006.5 |
| 20260504183844 | 74 | 292 | 4.0 | 4.0 | 0.00 | 0.00 | 0.00 | 24 | 1006.6 |
| 20260504183342 | 73 | 275 | 2.0 | 4.0 | 0.00 | 0.00 | 0.00 | 24 | 1006.6 |
| 20260504182839 | 73 | 284 | 2.0 | 4.0 | 0.00 | 0.00 | 0.00 | 25 | 1006.6 |
| 20260504182337 | 73 | 292 | 3.0 | 4.0 | 0.00 | 0.00 | 0.00 | 24 | 1006.9 |
| 20260504181833 | 73 | 295 | 2.0 | 6.0 | 0.00 | 0.00 | 0.00 | 24 | 1006.6 |
| 20260504181331 | 72 | 186 | 1.0 | 6.0 | 0.00 | 0.00 | 0.00 | 25 | 1006.6 |
| 20260504180830 | 71 | 89 | 0.0 | 3.0 | 0.00 | 0.00 | 0.00 | 25 | 1006.6 |
| 20260504180328 | 71 | 16 | 4.0 | 9.0 | 0.00 | 0.00 | 0.00 | 26 | 1006.8 |
| 20260504175826 | 72 | 308 | 1.0 | 4.0 | 0.00 | 0.00 | 0.00 | 26 | 1006.8 |
| 20260504175322 | 71 | 325 | 2.0 | 7.0 | 0.00 | 0.00 | 0.00 | 27 | 1006.8 |
| 20260504174821 | 71 | 290 | 3.0 | 7.0 | 0.00 | 0.00 | 0.00 | 26 | 1007.0 |
| 20260504174318 | 70 | 312 | 1.0 | 2.0 | 0.00 | 0.00 | 0.00 | 27 | 1007.0 |
| 20260504173814 | 70 | 212 | 0.0 | 4.0 | 0.00 | 0.00 | 0.00 | 27 | 1006.9 |
| 20260504173311 | 70 | 16 | 3.0 | 6.0 | 0.00 | 0.00 | 0.00 | 27 | 1007.2 |
| 20260504172808 | 70 | 294 | 3.0 | 6.0 | 0.00 | 0.00 | 0.00 | 27 | 1007.3 |
| 20260504172305 | 70 | 276 | 3.0 | 6.0 | 0.00 | 0.00 | 0.00 | 29 | 1007.3 |
| 20260504171800 | 69 | 278 | 1.0 | 13.0 | 0.00 | 0.00 | 0.00 | 27 | 1006.8 |
| 20260504171258 | 69 | 298 | 2.0 | 4.0 | 0.00 | 0.00 | 0.00 | 26 | 1007.1 |
| 20260504170755 | 69 | 277 | 4.0 | 4.0 | 0.00 | 0.00 | 0.00 | 27 | 1007.2 |
| 20260504170252 | 69 | 300 | 2.0 | 3.0 | 0.00 | 0.00 | 0.00 | 27 | 1007.2 |
| 20260504160210 | 68 | 284 | 2.0 | 4.0 | 0.00 | 0.00 | 0.00 | 29 | 1007.7 |
| 20260504151138 | 66 | 294 | 2.0 | 4.0 | 0.00 | 0.00 | 0.00 | 31 | 1008.1 |
| 20260504150636 | 66 | 267 | 2.0 | 6.0 | 0.00 | 0.00 | 0.00 | 30 | 1008.5 |
| 20260504150132 | 66 | 312 | 1.0 | 3.0 | 0.00 | 0.00 | 0.00 | 32 | 1008.2 |
| 20260504141101 | 63 | 281 | 1.0 | 2.0 | 0.00 | 0.00 | 0.00 | 36 | 1008.6 |
| 20260504140557 | 62 | 280 | 1.0 | 9.0 | 0.00 | 0.00 | 0.00 | 35 | 1009.1 |
| 20260504130522 | 58 | 266 | 4.0 | 6.0 | 0.00 | 0.00 | 0.00 | 39 | 1009.6 |
| 20260504110409 | 48 | 281 | 1.0 | 2.0 | 0.00 | 0.00 | 0.00 | 51 | 1010.1 |
| 20260504100331 | 47 | 283 | 0.0 | 0.0 | 0.00 | 0.00 | 0.00 | 52 | 1010.1 |
| 20260504081725 | 45 | 288 | 0.0 | 0.0 | 0.00 | 0.00 | 0.00 | 57 | 1009.8 |
| 20260504081221 | 45 | 288 | 0.0 | 0.0 | 0.00 | 0.00 | 0.00 | 57 | 1009.9 |
| 20260504080718 | 45 | 287 | 1.0 | 1.0 | 0.00 | 0.00 | 0.00 | 57 | 1009.9 |
| 20260504080214 | 45 | 287 | 0.0 | 0.0 | 0.00 | 0.00 | 0.00 | 58 | 1010.0 |
| 20260504070142 | 44 | 287 | 0.0 | 0.0 | 0.00 | 0.00 | 0.00 | 57 | 1009.9 |
| 20260504050531 | 37 | 287 | 0.0 | 0.0 | 0.00 | 0.00 | 0.00 | 75 | 1009.9 |
| 20260504045525 | 37 | 287 | 0.0 | 0.0 | 0.00 | 0.00 | 0.00 | 74 | 1009.9 |
| 20260504045020 | 37 | 287 | 0.0 | 0.0 | 0.00 | 0.00 | 0.00 | 73 | 1010.0 |
| 20260504044518 | 37 | 287 | 0.0 | 0.0 | 0.00 | 0.00 | 0.00 | 72 | 1009.8 |
| 20260504044014 | 37 | 287 | 0.0 | 0.0 | 0.00 | 0.00 | 0.00 | 72 | 1010.0 |
| 20260504043511 | 37 | 287 | 0.0 | 0.0 | 0.00 | 0.00 | 0.00 | 73 | 1009.9 |
| 20260504043009 | 37 | 287 | 0.0 | 0.0 | 0.00 | 0.00 | 0.00 | 74 | 1009.8 |
| 20260504042506 | 37 | 287 | 0.0 | 0.0 | 0.00 | 0.00 | 0.00 | 74 | 1009.9 |
| 20260504042003 | 37 | 287 | 0.0 | 0.0 | 0.00 | 0.00 | 0.00 | 73 | 1009.8 |
| 20260504041458 | 37 | 287 | 0.0 | 0.0 | 0.00 | 0.00 | 0.00 | 73 | 1009.9 |
| 20260504040954 | 38 | 287 | 0.0 | 0.0 | 0.00 | 0.00 | 0.00 | 73 | 1009.8 |
| 20260504040452 | 38 | 287 | 0.0 | 0.0 | 0.00 | 0.00 | 0.00 | 73 | 1009.7 |
| 20260504035948 | 38 | 287 | 0.0 | 0.0 | 0.00 | 0.00 | 0.00 | 73 | 1009.7 |
| 20260504035446 | 38 | 287 | 0.0 | 0.0 | 0.00 | 0.00 | 0.00 | 72 | 1009.8 |